TimeMDT,TemperatureF,Dew PointF,Humidity,Sea Level PressureIn,VisibilityMPH,Wind Direction,Wind SpeedMPH,Gust SpeedMPH,PrecipitationIn,Events,Conditions,WindDirDegrees,DateUTC
12:15 AM,64.4,44.6,49,29.98,10.0,WNW,15.0,-,N/A,,Clear,300,2013-09-09 06:15:00
12:35 AM,64.4,44.6,49,29.98,10.0,WNW,13.8,-,N/A,,Clear,300,2013-09-09 06:35:00
12:55 AM,64.4,44.6,49,29.98,10.0,West,10.4,-,N/A,,Clear,280,2013-09-09 06:55:00
1:15 AM,64.4,42.8,45,29.98,10.0,WNW,11.5,-,N/A,,Clear,300,2013-09-09 07:15:00
1:35 AM,62.6,44.6,52,29.99,10.0,WNW,12.7,-,N/A,,Clear,300,2013-09-09 07:35:00
1:55 AM,64.4,42.8,45,29.98,10.0,WNW,12.7,-,N/A,,Clear,290,2013-09-09 07:55:00
2:15 AM,64.4,42.8,45,29.98,10.0,West,13.8,17.3,N/A,,Clear,280,2013-09-09 08:15:00
2:35 AM,62.6,42.8,48,29.99,10.0,West,13.8,18.4,N/A,,Clear,280,2013-09-09 08:35:00
2:55 AM,62.6,42.8,48,29.99,10.0,WNW,13.8,-,N/A,,Clear,290,2013-09-09 08:55:00
3:15 AM,62.6,42.8,48,29.99,10.0,NW,12.7,-,N/A,,Clear,310,2013-09-09 09:15:00
3:35 AM,62.6,42.8,48,29.99,10.0,West,10.4,-,N/A,,Clear,280,2013-09-09 09:35:00
3:55 AM,60.8,42.8,52,29.99,10.0,WNW,13.8,-,N/A,,Clear,300,2013-09-09 09:55:00
4:15 AM,60.8,42.8,52,29.98,10.0,WNW,15.0,-,N/A,,Clear,300,2013-09-09 10:15:00
4:35 AM,60.8,42.8,52,29.99,10.0,NW,13.8,18.4,N/A,,Clear,310,2013-09-09 10:35:00
4:55 AM,59.0,42.8,55,29.99,10.0,WNW,10.4,-,N/A,,Clear,300,2013-09-09 10:55:00
5:15 AM,59.0,42.8,55,29.99,10.0,WNW,9.2,-,N/A,,Clear,300,2013-09-09 11:15:00
5:35 AM,57.2,42.8,59,30.00,10.0,West,5.8,-,N/A,,Clear,270,2013-09-09 11:35:00
5:55 AM,57.2,42.8,59,30.00,10.0,WNW,8.1,-,N/A,,Clear,290,2013-09-09 11:55:00
6:15 AM,57.2,42.8,59,30.00,10.0,West,9.2,-,N/A,,Clear,280,2013-09-09 12:15:00
6:35 AM,57.2,42.8,59,30.01,10.0,West,5.8,-,N/A,,Clear,260,2013-09-09 12:35:00
6:55 AM,57.2,42.8,59,30.00,10.0,West,8.1,-,N/A,,Clear,280,2013-09-09 12:55:00
7:15 AM,57.2,42.8,59,30.01,10.0,NW,8.1,-,N/A,,Clear,310,2013-09-09 13:15:00
7:35 AM,55.4,42.8,63,30.01,10.0,WNW,10.4,-,N/A,,Clear,300,2013-09-09 13:35:00
7:55 AM,57.2,42.8,59,30.01,10.0,NW,9.2,-,N/A,,Clear,310,2013-09-09 13:55:00
8:15 AM,57.2,42.8,59,30.01,10.0,WNW,12.7,-,N/A,,Clear,290,2013-09-09 14:15:00
8:35 AM,59.0,42.8,55,30.02,10.0,WNW,10.4,-,N/A,,Clear,300,2013-09-09 14:35:00
8:55 AM,60.8,44.6,55,30.02,10.0,WNW,9.2,-,N/A,,Clear,300,2013-09-09 14:55:00
9:15 AM,62.6,44.6,52,30.02,10.0,WNW,9.2,-,N/A,,Clear,300,2013-09-09 15:15:00
9:35 AM,64.4,44.6,49,30.02,10.0,WNW,10.4,-,N/A,,Clear,300,2013-09-09 15:35:00
9:55 AM,64.4,46.4,52,30.03,10.0,WNW,10.4,-,N/A,,Clear,300,2013-09-09 15:55:00
10:15 AM,66.2,46.4,49,30.03,10.0,NW,6.9,-,N/A,,Clear,310,2013-09-09 16:15:00
10:35 AM,69.8,46.4,43,30.03,10.0,NW,11.5,-,N/A,,Clear,320,2013-09-09 16:35:00
10:55 AM,71.6,46.4,41,30.02,10.0,NW,10.4,-,N/A,,Clear,320,2013-09-09 16:55:00
11:15 AM,73.4,46.4,38,30.02,10.0,NW,12.7,-,N/A,,Clear,320,2013-09-09 17:15:00
11:35 AM,73.4,46.4,38,30.01,10.0,NW,13.8,19.6,N/A,,Clear,320,2013-09-09 17:35:00
11:55 AM,75.2,46.4,36,30.01,10.0,NNW,12.7,20.7,N/A,,Clear,340,2013-09-09 17:55:00
12:15 PM,75.2,48.2,38,30.01,10.0,NNW,11.5,-,N/A,,Clear,330,2013-09-09 18:15:00
12:35 PM,78.8,48.2,34,30.00,10.0,NW,15.0,-,N/A,,Clear,320,2013-09-09 18:35:00
12:55 PM,78.8,48.2,34,29.99,10.0,NNW,11.5,23.0,N/A,,Clear,340,2013-09-09 18:55:00
1:15 PM,80.6,48.2,32,29.99,10.0,NW,15.0,19.6,N/A,,Clear,310,2013-09-09 19:15:00
1:35 PM,80.6,48.2,32,29.98,10.0,NNW,11.5,20.7,N/A,,Clear,340,2013-09-09 19:35:00
1:55 PM,80.6,48.2,32,29.97,10.0,NW,17.3,21.9,N/A,,Clear,320,2013-09-09 19:55:00
2:15 PM,82.4,48.2,30,29.97,10.0,NNW,12.7,17.3,N/A,,Clear,330,2013-09-09 20:15:00
2:35 PM,82.4,48.2,30,29.96,10.0,NW,16.1,20.7,N/A,,Clear,320,2013-09-09 20:35:00
2:55 PM,82.4,46.4,28,29.96,10.0,NNW,13.8,21.9,N/A,,Clear,340,2013-09-09 20:55:00
3:15 PM,82.4,46.4,28,29.95,10.0,NNW,16.1,20.7,N/A,,Clear,330,2013-09-09 21:15:00
3:35 PM,84.2,46.4,27,29.94,10.0,NNW,13.8,19.6,N/A,,Clear,330,2013-09-09 21:35:00
3:55 PM,84.2,46.4,27,29.94,10.0,NW,13.8,18.4,N/A,,Clear,320,2013-09-09 21:55:00
4:15 PM,84.2,46.4,27,29.93,10.0,NW,11.5,-,N/A,,Clear,310,2013-09-09 22:15:00
4:35 PM,84.2,46.4,27,29.92,10.0,NW,12.7,21.9,N/A,,Clear,310,2013-09-09 22:35:00
4:55 PM,84.2,46.4,27,29.92,10.0,NW,16.1,-,N/A,,Clear,310,2013-09-09 22:55:00
5:15 PM,84.2,46.4,27,29.92,10.0,NW,16.1,-,N/A,,Clear,310,2013-09-09 23:15:00
5:35 PM,82.4,46.4,28,29.92,10.0,WNW,12.7,19.6,N/A,,Clear,300,2013-09-09 23:35:00
5:55 PM,82.4,48.2,30,29.92,10.0,NW,13.8,-,N/A,,Clear,310,2013-09-09 23:55:00
6:15 PM,82.4,46.4,28,29.92,10.0,WNW,13.8,-,N/A,,Clear,290,2013-09-10 00:15:00
6:35 PM,82.4,48.2,30,29.91,10.0,WNW,13.8,-,N/A,,Clear,290,2013-09-10 00:35:00
6:55 PM,82.4,46.4,28,29.91,10.0,WNW,11.5,-,N/A,,Clear,290,2013-09-10 00:55:00
7:15 PM,80.6,48.2,32,29.91,10.0,WNW,10.4,-,N/A,,Clear,290,2013-09-10 01:15:00
7:35 PM,78.8,48.2,34,29.91,10.0,WNW,10.4,-,N/A,,Clear,300,2013-09-10 01:35:00
7:55 PM,78.8,46.4,32,29.91,10.0,WNW,9.2,-,N/A,,Clear,300,2013-09-10 01:55:00
8:15 PM,75.2,46.4,36,29.91,10.0,WNW,8.1,-,N/A,,Clear,300,2013-09-10 02:15:00
8:35 PM,73.4,46.4,38,29.91,10.0,West,5.8,-,N/A,,Clear,280,2013-09-10 02:35:00
8:55 PM,73.4,46.4,38,29.91,10.0,WNW,5.8,-,N/A,,Clear,290,2013-09-10 02:55:00
9:15 PM,71.6,46.4,41,29.91,10.0,WNW,6.9,-,N/A,,Clear,300,2013-09-10 03:15:00
9:35 PM,69.8,46.4,43,29.92,10.0,WNW,9.2,-,N/A,,Clear,300,2013-09-10 03:35:00
9:55 PM,69.8,46.4,43,29.92,10.0,NW,6.9,-,N/A,,Clear,310,2013-09-10 03:55:00
10:15 PM,68.0,46.4,46,29.92,10.0,NW,5.8,-,N/A,,Clear,310,2013-09-10 04:15:00
10:35 PM,68.0,46.4,46,29.92,10.0,NW,8.1,-,N/A,,Clear,310,2013-09-10 04:35:00
10:55 PM,69.8,44.6,40,29.92,10.0,WNW,5.8,-,N/A,,Clear,300,2013-09-10 04:55:00